Weather History for KMWM - December, 2011

Change the Weather History Date:

Thursday, December 8, 2011

  Actual Average Record
Temperature  
Mean Temperature 16 °F -  
Max Temperature 24 °F 29 °F 53 °F (1970)
Min Temperature 8 °F 11 °F -15 °F (1972)
Degree Days  
Heating Degree Days 49    
Moisture  
Dew Point 10 °F    
Average Humidity 76    
Maximum Humidity 100    
Minimum Humidity 54    
Precipitation  
Precipitation 0.00 in - - ()
Sea Level Pressure  
Sea Level Pressure 30.15 in    
Wind  
Wind Speed 9 mph (West)    
Max Wind Speed 18 mph    
Max Gust Speed 24 mph    
Visibility 10 miles    
Events      
Averages and records for this station are not official NWS values.
T = Trace of Precipitation, MM = Missing Value Source: NWS Daily Summary

Daily Weather History Graph

Daily Weather History Graph

Search for Another Location

Airport or City:

Trip Planner

Search our weather history database for the weather conditions in past years. The results will help you decide how hot, cold, wet, or windy it might be!

Date:

Astronomy

Dec. 08, 2011 Rise Set
Actual Time 7:41 AM CST 4:42 PM CST
Civil Twilight 7:09 AM CST 5:15 PM CST
Nautical Twilight 6:32 AM CST 5:51 PM CST
Astronomical Twilight 5:57 AM CST 6:26 PM CST
Moon 3:23 PM CST (12/8) 5:54 AM CST (12/8)
Length of Visible Light 10h 06m
Length of Day
9h 00m
Waxing Gibbous, 97% of the Moon is Illuminated
Dec 8
Waxing Gibbous
Dec 10
Full
Dec 17
Last Quarter
Dec 24
New
Jan 1
First Quarter

Hourly Weather History & Observations

Time (CST) Temp. Windchill Dew Point Humidity Pressure Visibility Wind Dir Wind Speed Gust Speed Precip Events Conditions
12:13 AM 24.8 °F 16.1 °F 21.2 °F 86% 30.10 in 10.0 mi West 8.1 mph - N/A   Overcast
12:33 AM 24.8 °F 15.3 °F 21.2 °F 86% 30.10 in 10.0 mi WNW 9.2 mph - N/A   Overcast
12:52 AM 23.0 °F 13.1 °F 19.4 °F 86% 30.10 in 10.0 mi WNW 9.2 mph - N/A   Overcast
1:13 AM 21.2 °F 11.7 °F 17.6 °F 86% 30.09 in 10.0 mi WNW 8.1 mph - N/A   Mostly Cloudy
1:32 AM 19.4 °F 9.5 °F 17.6 °F 93% 30.10 in 10.0 mi WNW 8.1 mph - N/A   Mostly Cloudy
1:52 AM 19.4 °F 9.5 °F 17.6 °F 93% 30.11 in 10.0 mi WNW 8.1 mph - N/A   Mostly Cloudy
2:13 AM 19.4 °F 7.9 °F 15.8 °F 86% 30.11 in 10.0 mi WNW 10.4 mph - N/A   Scattered Clouds
2:32 AM 17.6 °F 8.2 °F 15.8 °F 93% 30.11 in 10.0 mi WNW 6.9 mph - N/A   Scattered Clouds
2:53 AM 17.6 °F 9.3 °F 14.0 °F 86% 30.11 in 10.0 mi WNW 5.8 mph - N/A   Mostly Cloudy
3:12 AM 17.6 °F 10.7 °F 15.8 °F 93% 30.11 in 10.0 mi West 4.6 mph - N/A   Mostly Cloudy
3:32 AM 15.8 °F 7.2 °F 14.0 °F 93% 30.12 in 10.0 mi West 5.8 mph - N/A   Scattered Clouds
3:53 AM 12.2 °F 4.3 °F 12.2 °F 100% 30.12 in 10.0 mi NW 4.6 mph - N/A   Clear
4:12 AM 14.0 °F - 12.2 °F 93% 30.12 in 10.0 mi Calm Calm - N/A   Clear
4:32 AM 12.2 °F 6.1 °F 12.2 °F 100% 30.12 in 10.0 mi South 3.5 mph - N/A   Clear
4:53 AM 12.2 °F 4.3 °F 10.4 °F 92% 30.12 in 10.0 mi SSW 4.6 mph - N/A   Clear
5:12 AM 12.2 °F 2.9 °F 12.2 °F 100% 30.12 in 10.0 mi SW 5.8 mph - N/A   Clear
5:33 AM 12.2 °F 4.3 °F 10.4 °F 92% 30.13 in 10.0 mi SSW 4.6 mph - N/A   Clear
5:53 AM 12.2 °F - 10.4 °F 92% 30.14 in 10.0 mi Calm Calm - N/A   Clear
6:12 AM 12.2 °F 6.1 °F 10.4 °F 92% 30.14 in 10.0 mi SSW 3.5 mph - N/A   Clear
6:33 AM 10.4 °F 4.0 °F 10.4 °F 100% 30.16 in 10.0 mi SSW 3.5 mph - N/A   Scattered Clouds
6:52 AM 10.4 °F - 10.4 °F 100% 30.17 in 10.0 mi Calm Calm - N/A   Overcast
7:12 AM 15.8 °F 5.1 °F 12.2 °F 86% 30.18 in 10.0 mi WNW 8.1 mph - N/A   Overcast
7:33 AM 14.0 °F 3.9 °F 10.4 °F 86% 30.18 in 10.0 mi West 6.9 mph - N/A   Overcast
7:53 AM 15.8 °F 7.2 °F 12.2 °F 86% 30.18 in 10.0 mi West 5.8 mph - N/A   Overcast
8:12 AM 14.0 °F 5.1 °F 10.4 °F 86% 30.18 in 10.0 mi West 5.8 mph - N/A   Scattered Clouds
8:33 AM 14.0 °F 8.2 °F 12.2 °F 93% 30.19 in 10.0 mi West 3.5 mph - N/A   Clear
8:52 AM 17.6 °F 7.3 °F 12.2 °F 79% 30.18 in 10.0 mi West 8.1 mph - N/A   Mostly Cloudy
9:12 AM 17.6 °F 4.3 °F 12.2 °F 79% 30.19 in 10.0 mi West 12.7 mph - N/A   Scattered Clouds
9:33 AM 19.4 °F 6.6 °F 10.4 °F 68% 30.19 in 10.0 mi West 12.7 mph 19.6 mph N/A   Clear
9:52 AM 19.4 °F 5.5 °F 10.4 °F 68% 30.20 in 10.0 mi WNW 15.0 mph - N/A   Clear
10:12 AM 19.4 °F 4.5 °F 10.4 °F 68% 30.20 in 10.0 mi WNW 17.3 mph - N/A   Clear
10:33 AM 19.4 °F 5.0 °F 8.6 °F 63% 30.20 in 10.0 mi WNW 16.1 mph 24.2 mph N/A   Clear
10:52 AM 19.4 °F 4.1 °F 8.6 °F 63% 30.20 in 10.0 mi WNW 18.4 mph - N/A   Clear
11:12 AM 19.4 °F 5.0 °F 8.6 °F 63% 30.20 in 10.0 mi West 16.1 mph 20.7 mph N/A   Clear
11:33 AM 21.2 °F 6.4 °F 8.6 °F 58% 30.20 in 10.0 mi WNW 18.4 mph - N/A   Clear
11:52 AM 21.2 °F 7.3 °F 8.6 °F 58% 30.19 in 10.0 mi WNW 16.1 mph - N/A   Scattered Clouds
12:12 PM 21.2 °F 7.3 °F 6.8 °F 54% 30.18 in 10.0 mi WNW 16.1 mph 20.7 mph N/A   Scattered Clouds
12:33 PM 21.2 °F 7.3 °F 8.6 °F 58% 30.18 in 10.0 mi West 16.1 mph - N/A   Mostly Cloudy
12:52 PM 21.2 °F 8.3 °F 6.8 °F 54% 30.17 in 10.0 mi WNW 13.8 mph - N/A   Mostly Cloudy
1:12 PM 19.4 °F 8.6 °F 6.8 °F 58% 30.17 in 10.0 mi West 9.2 mph - N/A   Scattered Clouds
1:33 PM 21.2 °F 8.3 °F 6.8 °F 54% 30.16 in 10.0 mi WNW 13.8 mph 19.6 mph N/A   Clear
1:52 PM 21.2 °F 7.8 °F 6.8 °F 54% 30.15 in 10.0 mi WNW 15.0 mph - N/A   Clear
2:12 PM 21.2 °F 6.8 °F 6.8 °F 54% 30.15 in 10.0 mi WNW 17.3 mph 20.7 mph N/A   Clear
2:52 PM 21.2 °F 7.8 °F 6.8 °F 54% 30.15 in 10.0 mi West 15.0 mph - N/A   Scattered Clouds
3:12 PM 19.4 °F 7.2 °F 6.8 °F 58% 30.15 in 10.0 mi West 11.5 mph - N/A   Scattered Clouds
3:33 PM 19.4 °F 6.6 °F 6.8 °F 58% 30.15 in 10.0 mi West 12.7 mph - N/A   Scattered Clouds
3:52 PM 19.4 °F 7.2 °F 6.8 °F 58% 30.15 in 10.0 mi West 11.5 mph - N/A   Scattered Clouds
4:12 PM 17.6 °F 5.7 °F 6.8 °F 63% 30.15 in 10.0 mi West 10.4 mph - N/A   Mostly Cloudy
4:33 PM 17.6 °F 4.3 °F 8.6 °F 68% 30.15 in 10.0 mi WSW 12.7 mph - N/A   Overcast
4:53 PM 17.6 °F 5.7 °F 8.6 °F 68% 30.15 in 10.0 mi WSW 10.4 mph - N/A   Overcast
5:12 PM 17.6 °F 6.4 °F 8.6 °F 68% 30.15 in 10.0 mi WSW 9.2 mph - N/A   Overcast
5:33 PM 17.6 °F 6.4 °F 8.6 °F 68% 30.15 in 10.0 mi WSW 9.2 mph - N/A   Mostly Cloudy
5:52 PM 15.8 °F 5.1 °F 8.6 °F 73% 30.15 in 10.0 mi WSW 8.1 mph - N/A   Scattered Clouds
6:12 PM 14.0 °F 2.0 °F 6.8 °F 73% 30.15 in 10.0 mi WSW 9.2 mph - N/A   Clear
6:33 PM 12.2 °F -1.0 °F 6.8 °F 79% 30.16 in 10.0 mi West 10.4 mph - N/A   Scattered Clouds
6:52 PM 12.2 °F -1.0 °F 5.0 °F 73% 30.16 in 10.0 mi West 10.4 mph - N/A   Scattered Clouds
7:12 PM 12.2 °F -1.0 °F 3.2 °F 67% 30.17 in 10.0 mi West 10.4 mph - N/A   Clear
7:33 PM 12.2 °F 1.7 °F 3.2 °F 67% 30.17 in 10.0 mi West 6.9 mph - N/A   Clear
7:52 PM 12.2 °F -0.2 °F 1.4 °F 62% 30.17 in 10.0 mi WSW 9.2 mph - N/A   Clear
8:12 PM 8.6 °F -4.7 °F 1.4 °F 73% 30.17 in 10.0 mi West 9.2 mph - N/A   Clear
8:33 PM 8.6 °F -3.7 °F -0.4 °F 67% 30.18 in 10.0 mi West 8.1 mph - N/A   Clear
8:52 PM 8.6 °F -4.7 °F -0.4 °F 67% 30.17 in 10.0 mi West 9.2 mph - N/A   Clear
9:12 PM 8.6 °F -2.6 °F -0.4 °F 67% 30.18 in 10.0 mi West 6.9 mph - N/A   Clear
9:33 PM 6.8 °F -5.9 °F -0.4 °F 72% 30.19 in 10.0 mi West 8.1 mph - N/A   Clear
9:52 PM 3.2 °F -11.3 °F -2.2 °F 78% 30.19 in 10.0 mi West 9.2 mph - N/A   Clear
10:12 PM 1.4 °F -11.3 °F -2.2 °F 85% 30.19 in 10.0 mi West 6.9 mph - N/A   Clear
10:33 PM 1.4 °F -11.3 °F -4.0 °F 78% 30.19 in 10.0 mi West 6.9 mph - N/A   Clear
10:52 PM 1.4 °F -9.9 °F -2.2 °F 85% 30.19 in 10.0 mi West 5.8 mph - N/A   Clear
11:12 PM 1.4 °F -11.3 °F -4.0 °F 78% 30.20 in 10.0 mi West 6.9 mph - N/A   Clear
11:33 PM -0.4 °F -13.4 °F -5.8 °F 78% 30.20 in 10.0 mi West 6.9 mph - N/A   Clear
11:52 PM -0.4 °F -14.7 °F -5.8 °F 78% 30.20 in 10.0 mi WSW 8.1 mph - N/A   Clear